FW8502 Weather Reports


time (UTC)temp
F
wind
direction
speed
knots
gust
knots
rain 1hr
in
rain 24hr
in
rain mn
in
humidity
%
barometer
mb
20260503034534 73 289 1.7 7.8 0.00 0.44 0.44 88 1015.1
20260503033038 72 266 2.6 4.3 0.00 0.44 0.44 88 1014.7
20260503031535 73 272 1.7 7.0 0.04 0.44 0.44 88 1014.3
20260503030036 73 229 4.3 7.8 0.10 0.44 0.44 88 1014.0
20260503024536 73 238 3.5 6.1 0.11 0.44 0.44 88 1014.0
20260503023034 73 200 3.5 7.8 0.11 0.44 0.44 88 1012.9
20260503021534 73 226 3.5 7.8 0.06 0.39 0.39 88 1014.1
20260503020042 73 252 5.2 8.7 0.03 0.34 0.34 88 1014.5
20260503014532 73 259 4.3 9.6 0.02 0.33 0.33 88 1014.3
20260503013036 73 226 6.1 10.4 0.02 0.33 0.33 87 1012.9
20260503011545 73 269 3.5 7.8 0.02 0.33 0.33 87 1014.0
20260503010037 73 222 1.7 5.2 0.01 0.31 0.31 87 1013.4
20260503004532 73 213 1.7 3.5 0.02 0.31 0.31 87 1013.5
20260503003037 73 238 0.0 1.7 0.02 0.31 0.31 86 1013.4
20260503001537 74 238 0.9 7.8 0.10 0.31 0.31 86 1013.5
20260503000055 74 251 5.2 7.8 0.08 0.29 0.29 86 1013.7
20260502234537 74 135 1.7 4.3 0.08 0.29 0.29 85 1013.2
20260502233038 74 0 0.0 2.6 0.08 0.29 0.29 85 1013.6
20260502231539 74 323 0.9 3.5 0.00 0.21 0.21 85 1013.9
20260502230038 74 32 0.9 5.2 0.18 0.21 0.21 85 1013.6
20260502224537 74 45 2.6 8.7 0.21 0.21 0.21 84 1013.2
20260502223035 75 346 4.3 13.0 0.21 0.21 0.21 83 1013.3
20260502221533 76 22 6.1 10.4 0.21 0.21 0.21 80 1013.1
20260502220048 81 327 8.7 16.5 0.00 0.00 0.00 79 1012.9
20260502214537 82 304 7.0 13.0 0.00 0.00 0.00 79 1011.9
20260502213041 82 279 9.6 16.5 0.00 0.00 0.00 78 1012.3
20260502211539 82 282 7.0 13.9 0.00 0.00 0.00 77 1012.2
20260502210036 83 236 7.8 13.0 0.00 0.00 0.00 76 1011.7
20260502204538 84 272 7.8 12.2 0.00 0.00 0.00 74 1011.6
20260502203038 85 280 9.6 14.8 0.00 0.00 0.00 73 1011.8
20260502201545 85 294 9.6 16.5 0.00 0.00 0.00 73 1011.8
20260502200051 85 264 7.8 17.4 0.00 0.00 0.00 72 1011.7
20260502194540 85 296 9.6 18.2 0.00 0.00 0.00 72 1011.9
20260502193039 85 254 9.6 20.9 0.00 0.00 0.00 73 1011.9
20260502191540 85 334 10.4 17.4 0.00 0.00 0.00 73 1012.3
20260502190046 86 277 9.6 13.9 0.00 0.00 0.00 74 1012.4
20260502184539 86 313 8.7 16.5 0.00 0.00 0.00 75 1012.7
20260502183038 85 289 11.3 17.4 0.00 0.00 0.00 74 1012.9
20260502181538 85 301 10.4 17.4 0.00 0.00 0.00 75 1013.1
20260502163041 85 291 11.3 20.0 0.00 0.00 0.00 76 1013.4
20260502161535 85 277 12.2 22.6 0.00 0.00 0.00 75 1013.2
20260502151557 85 269 11.3 20.0 0.00 0.00 0.00 75 1012.8
20260502123039 75 219 5.2 8.7 0.00 0.00 0.00 87 1011.8
20260502121539 73 166 3.5 7.8 0.00 0.00 0.00 87 1011.8
20260502114538 71 213 3.5 7.8 0.00 0.00 0.00 87 1011.6
20260502113048 71 219 4.3 7.0 0.00 0.00 0.00 87 1011.6
20260502111540 70 215 3.5 7.0 0.00 0.00 0.00 86 1011.6
20260502110038 70 219 1.7 4.3 0.00 0.00 0.00 86 1011.6
20260502104536 70 190 3.5 6.1 0.00 0.00 0.00 86 1011.5
20260502103032 70 169 2.6 5.2 0.00 0.00 0.00 85 1011.5
20260502101537 70 174 1.7 4.3 0.00 0.00 0.00 85 1011.8
20260502090106 70 209 1.7 7.0 0.00 0.00 0.00 86 1011.8
20260502070050 71 0 0.0 0.0 0.00 0.00 0.00 84 1011.8
20260502064554 72 0 0.0 0.9 0.00 0.00 0.00 84 1011.9
20260502063048 72 0 0.0 1.7 0.00 0.00 0.00 84 1012.1
20260502061535 72 0 0.0 2.6 0.00 0.00 0.00 84 1012.1
20260502060058 72 0 0.0 0.0 0.00 0.00 0.00 83 1012.2
20260502054536 72 0 0.0 0.9 0.00 0.00 0.00 83 1012.3
20260502053032 72 103 0.0 0.0 0.00 0.00 0.00 83 1012.7
20260502051532 72 0 0.0 0.0 0.00 0.00 0.00 82 1012.8
20260502050040 72 0 0.0 0.0 0.00 0.00 0.00 81 1012.8
20260502044535 73 0 0.0 0.9 0.00 0.00 0.00 81 1012.9
20260502043034 73 0 0.0 0.9 0.00 0.00 0.00 81 1012.9
20260502041532 73 0 0.0 1.7 0.00 0.00 0.00 81 1012.9
20260502040032 74 0 0.0 0.0 0.00 0.00 0.00 80 1012.9